RAM500B GOBD-GMMN

Flight info

Callsign RAM500B
Flight time 2h 39m
Altitude 41000
Route SAKLI1B SAKLI DCT NEVDI DCT ULNOT DCT IDINI DCT SEPEL DCT ARDAR DCT ZRT DCT BIMOG/N0481F400 DCT ECHED DCT DIDAN DCT ARSOL DCT ADM DCT EKTAL DCT NAMIR DCT MAGAV DCT BENOV
Aircraft B789/H-SDE1E2E3FGHIJ2J3J4J5M1RWXY/LB1D1

Departure

Time 2026-04-27 15:20
Airport Blaise Diagne International Airport (GOBD)

Arrival

Time 2026-04-27 18:00
Airport Mohammed V International Airport (GMMN)
Time Latitude Longitude Altitude Speed Heading
2026-04-27 14:43 14.67079 -17.06859 277 ft 0 kts 90°
2026-04-27 15:08 14.67079 -17.06867 277 ft 4 kts 91°
2026-04-27 15:08 14.67081 -17.06895 279 ft 4 kts 95°
2026-04-27 15:08 14.67084 -17.06923 277 ft 4 kts 101°
2026-04-27 15:09 14.67091 -17.06949 277 ft 4 kts 112°
2026-04-27 15:09 14.67104 -17.06972 281 ft 4 kts 145°
2026-04-27 15:09 14.67115 -17.06978 282 ft 4 kts 180°
2026-04-27 15:16 14.67103 -17.06979 281 ft 5 kts 188°
2026-04-27 15:16 14.67073 -17.07014 276 ft 7 kts 265°
2026-04-27 15:16 14.67056 -17.07081 272 ft 8 kts 217°
2026-04-27 15:16 14.66990 -17.07090 272 ft 13 kts 180°
2026-04-27 15:17 14.66884 -17.07089 272 ft 17 kts 179°
2026-04-27 15:17 14.66751 -17.07087 273 ft 21 kts 179°
2026-04-27 15:17 14.66591 -17.07086 272 ft 25 kts 180°
2026-04-27 15:17 14.66401 -17.07084 271 ft 29 kts 179°
2026-04-27 15:18 14.66186 -17.07081 271 ft 33 kts 179°
2026-04-27 15:18 14.65954 -17.07080 270 ft 33 kts 180°
2026-04-27 15:18 14.65724 -17.07078 271 ft 33 kts 179°
2026-04-27 15:18 14.65623 -17.07108 270 ft 7 kts 252°
2026-04-27 15:19 14.65620 -17.07169 270 ft 12 kts 268°
2026-04-27 15:19 14.65627 -17.07264 269 ft 9 kts 306°
2026-04-27 15:19 14.65657 -17.07274 269 ft 7 kts 360°
2026-04-27 15:19 14.65748 -17.07272 269 ft 19 kts
2026-04-27 15:20 14.66070 -17.07272 267 ft 82 kts 360°
2026-04-27 15:20 14.66862 -17.07280 276 ft 143 kts 359°
2026-04-27 15:20 14.67934 -17.07291 739 ft 155 kts
2026-04-27 15:20 14.69016 -17.07283 1334 ft 157 kts
2026-04-27 15:21 14.70134 -17.07274 1753 ft 166 kts
2026-04-27 15:21 14.71318 -17.07293 2218 ft 174 kts
2026-04-27 15:21 14.72600 -17.07316 2565 ft 193 kts
2026-04-27 15:21 14.73977 -17.07357 2962 ft 209 kts 358°
2026-04-27 15:22 14.74985 -17.07382 3097 ft 227 kts 358°
2026-04-27 15:22 14.76596 -17.07419 3681 ft 239 kts 358°
2026-04-27 15:22 14.78354 -17.07426 3956 ft 263 kts 359°
2026-04-27 15:22 14.80205 -17.07426 4724 ft 263 kts 358°
2026-04-27 15:23 14.82000 -17.07444 5650 ft 262 kts 358°
2026-04-27 15:23 14.83924 -17.07450 5974 ft 280 kts 357°
2026-04-27 15:23 14.85739 -17.07438 7392 ft 252 kts 357°
2026-04-27 15:23 14.87587 -17.07437 7517 ft 280 kts 356°
2026-04-27 15:24 14.89579 -17.07479 8037 ft 288 kts 356°
2026-04-27 15:24 14.91549 -17.07527 8956 ft 282 kts 356°
2026-04-27 15:24 14.93580 -17.07560 9149 ft 306 kts 358°
2026-04-27 15:24 14.95696 -17.07542 10105 ft 289 kts 359°
2026-04-27 15:25 14.97713 -17.07528 10645 ft 302 kts 358°
2026-04-27 15:25 14.99889 -17.07574 11077 ft 309 kts 355°
2026-04-27 15:25 15.02000 -17.07656 11982 ft 303 kts 354°
2026-04-27 15:25 15.04183 -17.07712 12108 ft 327 kts 357°
2026-04-27 15:26 15.06522 -17.07675 12436 ft 340 kts 359°
2026-04-27 15:26 15.08863 -17.07627 13389 ft 329 kts 357°
2026-04-27 15:26 15.11111 -17.07642 14077 ft 331 kts 355°
2026-04-27 15:26 15.13475 -17.07715 14156 ft 352 kts 355°
2026-04-27 15:27 15.16012 -17.07771 14179 ft 375 kts 356°
2026-04-27 15:27 15.18679 -17.07777 14547 ft 385 kts 357°
2026-04-27 15:27 15.21351 -17.07782 15215 ft 385 kts 356°
2026-04-27 15:27 15.24041 -17.07814 15809 ft 387 kts 356°
2026-04-27 15:28 15.26744 -17.07850 16396 ft 390 kts 356°
2026-04-27 15:28 15.29470 -17.07874 16978 ft 392 kts 356°
2026-04-27 15:28 15.32205 -17.07738 17517 ft 398 kts
2026-04-27 15:28 15.34837 -17.06827 18151 ft 403 kts 25°
2026-04-27 15:29 15.37168 -17.05182 18624 ft 408 kts 38°
2026-04-27 15:29 15.39364 -17.03281 19013 ft 413 kts 38°
2026-04-27 15:29 15.41556 -17.01335 19495 ft 416 kts 38°
2026-04-27 15:29 15.43767 -16.99386 19940 ft 419 kts 38°
2026-04-27 15:30 15.46014 -16.97433 20395 ft 422 kts 37°
2026-04-27 15:30 15.48272 -16.95467 20831 ft 425 kts 37°
2026-04-27 15:30 15.50513 -16.93502 21281 ft 428 kts 38°
2026-04-27 15:30 15.52797 -16.91496 21711 ft 431 kts 37°
2026-04-27 15:31 15.55098 -16.89483 22137 ft 434 kts 37°
2026-04-27 15:31 15.57420 -16.87452 22551 ft 437 kts 37°
2026-04-27 15:31 15.59755 -16.85407 22967 ft 440 kts 37°
2026-04-27 15:31 15.62099 -16.83350 23368 ft 443 kts 37°
2026-04-27 15:32 15.64467 -16.81274 23734 ft 446 kts 37°
2026-04-27 15:32 15.66839 -16.79194 24094 ft 448 kts 37°
2026-04-27 15:32 15.69229 -16.77098 24453 ft 450 kts 37°
2026-04-27 15:32 15.71635 -16.74986 24769 ft 453 kts 37°
2026-04-27 15:33 15.74015 -16.72897 25132 ft 455 kts 37°
2026-04-27 15:33 15.76468 -16.70743 25477 ft 457 kts 37°
2026-04-27 15:33 15.78871 -16.68632 25797 ft 459 kts 36°
2026-04-27 15:33 15.81315 -16.66484 26129 ft 461 kts 36°
2026-04-27 15:34 15.83771 -16.64326 26460 ft 463 kts 36°
2026-04-27 15:34 15.86233 -16.62161 26796 ft 465 kts 36°
2026-04-27 15:34 15.88710 -16.59983 27127 ft 467 kts 36°
2026-04-27 15:34 15.91197 -16.57794 27452 ft 469 kts 36°
2026-04-27 15:35 15.93690 -16.55600 27791 ft 471 kts 36°
2026-04-27 15:35 15.96202 -16.53388 28088 ft 473 kts 36°
2026-04-27 15:35 15.98727 -16.51164 28402 ft 475 kts 36°
2026-04-27 15:35 16.01255 -16.48936 28711 ft 477 kts 36°
2026-04-27 15:36 16.03798 -16.46695 29031 ft 479 kts 36°
2026-04-27 15:36 16.06424 -16.44583 29333 ft 477 kts 30°
2026-04-27 15:36 16.09138 -16.42586 29651 ft 479 kts 30°
2026-04-27 15:36 16.11862 -16.40579 29961 ft 481 kts 30°
2026-04-27 15:37 16.14595 -16.38553 30220 ft 483 kts 30°
2026-04-27 15:37 16.17337 -16.36518 30410 ft 486 kts 30°
2026-04-27 15:37 16.20095 -16.34477 30644 ft 488 kts 30°
2026-04-27 15:37 16.22873 -16.32421 30821 ft 492 kts 30°
2026-04-27 15:38 16.25634 -16.30375 31040 ft 494 kts 30°
2026-04-27 15:38 16.28437 -16.28295 31253 ft 496 kts 30°
2026-04-27 15:38 16.31260 -16.26201 31462 ft 499 kts 30°
2026-04-27 15:38 16.34093 -16.24100 31682 ft 502 kts 30°
2026-04-27 15:39 16.36943 -16.21986 31883 ft 504 kts 30°
2026-04-27 15:39 16.39804 -16.19860 32079 ft 506 kts 30°
2026-04-27 15:39 16.42684 -16.17720 32310 ft 509 kts 30°
2026-04-27 15:39 16.45579 -16.15570 32494 ft 511 kts 30°
2026-04-27 15:40 16.48480 -16.13414 32716 ft 514 kts 30°
2026-04-27 15:40 16.51398 -16.11244 32918 ft 516 kts 30°
2026-04-27 15:40 16.54330 -16.09062 33117 ft 519 kts 30°
2026-04-27 15:40 16.57276 -16.06868 33332 ft 521 kts 30°
2026-04-27 15:41 16.60234 -16.04664 33507 ft 523 kts 30°
2026-04-27 15:41 16.63171 -16.02475 33710 ft 526 kts 30°
2026-04-27 15:41 16.66148 -16.00255 33963 ft 527 kts 30°
2026-04-27 15:41 16.69127 -15.98032 34215 ft 527 kts 30°
2026-04-27 15:42 16.72114 -15.95804 34490 ft 527 kts 30°
2026-04-27 15:42 16.75090 -15.93583 34775 ft 526 kts 30°
2026-04-27 15:42 16.78065 -15.91361 35067 ft 526 kts 30°
2026-04-27 15:42 16.80865 -15.89269 35300 ft 526 kts 30°
2026-04-27 15:43 16.83838 -15.87048 35566 ft 526 kts 30°
2026-04-27 15:43 16.86813 -15.84824 35827 ft 525 kts 30°
2026-04-27 15:43 16.89783 -15.82602 36095 ft 525 kts 30°
2026-04-27 15:43 16.92752 -15.80381 36350 ft 525 kts 30°
2026-04-27 15:44 16.95718 -15.78162 36596 ft 525 kts 30°
2026-04-27 15:44 16.98689 -15.75937 36843 ft 525 kts 30°
2026-04-27 15:44 17.01653 -15.73717 37100 ft 524 kts 30°
2026-04-27 15:44 17.04612 -15.71500 37337 ft 524 kts 30°
2026-04-27 15:45 17.07580 -15.69275 37582 ft 524 kts 30°
2026-04-27 15:45 17.10543 -15.67053 37824 ft 524 kts 30°
2026-04-27 15:45 17.13506 -15.64828 38077 ft 524 kts 29°
2026-04-27 15:45 17.16464 -15.62606 38230 ft 525 kts 29°
2026-04-27 15:46 17.19441 -15.60370 38428 ft 525 kts 29°
2026-04-27 15:46 17.22407 -15.58141 38632 ft 525 kts 29°
2026-04-27 15:46 17.25376 -15.55907 38820 ft 525 kts 29°
2026-04-27 15:46 17.28337 -15.53679 39015 ft 524 kts 29°
2026-04-27 15:47 17.31265 -15.51476 39204 ft 523 kts 29°
2026-04-27 15:47 17.34257 -15.49224 39382 ft 523 kts 29°
2026-04-27 15:47 17.37174 -15.47027 39564 ft 523 kts 29°
2026-04-27 15:47 17.40122 -15.44805 39742 ft 522 kts 29°
2026-04-27 15:48 17.43065 -15.42587 39923 ft 521 kts 29°
2026-04-27 15:48 17.46010 -15.40366 40090 ft 521 kts 29°
2026-04-27 15:48 17.48950 -15.38148 40259 ft 521 kts 29°
2026-04-27 15:49 17.54825 -15.33713 40604 ft 519 kts 29°
2026-04-27 15:49 17.57751 -15.31502 40772 ft 519 kts 29°
2026-04-27 15:49 17.60681 -15.29289 40893 ft 519 kts 29°
2026-04-27 15:50 17.66554 -15.24851 40877 ft 520 kts 29°
2026-04-27 15:50 17.72405 -15.20452 40879 ft 516 kts 29°
2026-04-27 15:51 17.78235 -15.16055 40883 ft 516 kts 29°
2026-04-27 15:51 17.84066 -15.11657 40904 ft 516 kts 29°
2026-04-27 15:52 17.89899 -15.07249 40891 ft 518 kts 29°
2026-04-27 15:52 17.95752 -15.02819 40896 ft 519 kts 29°
2026-04-27 15:53 18.01612 -14.98384 40891 ft 520 kts 29°
2026-04-27 15:53 18.07470 -14.93942 40894 ft 518 kts 29°
2026-04-27 15:54 18.13322 -14.89506 40880 ft 518 kts 29°
2026-04-27 15:54 18.19161 -14.85072 40885 ft 518 kts 29°
2026-04-27 15:55 18.25011 -14.80630 40949 ft 519 kts 29°
2026-04-27 15:55 18.30863 -14.76192 41098 ft 518 kts 29°
2026-04-27 15:56 18.36703 -14.71735 40882 ft 522 kts 29°
2026-04-27 15:56 18.42547 -14.67278 40872 ft 517 kts 29°
2026-04-27 15:57 18.48400 -14.62826 40874 ft 519 kts 29°
2026-04-27 15:57 18.54252 -14.58353 40879 ft 520 kts 29°
2026-04-27 15:58 18.60138 -14.53864 40877 ft 523 kts 29°
2026-04-27 15:58 18.66019 -14.49364 40878 ft 522 kts 29°
2026-04-27 15:59 18.71897 -14.44871 40873 ft 521 kts 29°
2026-04-27 15:59 18.77723 -14.40409 40869 ft 520 kts 29°
2026-04-27 16:00 18.83583 -14.35919 40864 ft 520 kts 29°
2026-04-27 16:00 18.89460 -14.31413 40884 ft 525 kts 29°
2026-04-27 16:01 18.95413 -14.26843 40878 ft 532 kts 29°
2026-04-27 16:01 19.01395 -14.22245 40878 ft 535 kts 29°
2026-04-27 16:02 19.07377 -14.17645 40880 ft 536 kts 29°
2026-04-27 16:02 19.13485 -14.12942 40880 ft 535 kts 29°
2026-04-27 16:03 19.19462 -14.08336 40880 ft 534 kts 29°
2026-04-27 16:03 19.25463 -14.03709 40905 ft 534 kts 29°
2026-04-27 16:04 19.31512 -13.99043 40882 ft 541 kts 29°
2026-04-27 16:04 19.37635 -13.94310 40875 ft 547 kts 29°
2026-04-27 16:05 19.42748 -13.90354 40879 ft 547 kts 29°
2026-04-27 16:05 19.48896 -13.85595 40890 ft 545 kts 29°
2026-04-27 16:06 19.55041 -13.80836 40884 ft 547 kts 29°
2026-04-27 16:06 19.61154 -13.76094 40913 ft 548 kts 29°
2026-04-27 16:07 19.67326 -13.71303 40882 ft 548 kts 29°
2026-04-27 16:07 19.73476 -13.66525 40882 ft 547 kts 29°
2026-04-27 16:08 19.79619 -13.61748 40879 ft 547 kts 29°
2026-04-27 16:08 19.85768 -13.56960 40883 ft 547 kts 29°
2026-04-27 16:09 19.91912 -13.52172 40882 ft 547 kts 29°
2026-04-27 16:09 20.01129 -13.44982 40867 ft 549 kts 29°
2026-04-27 16:10 20.13409 -13.35383 40890 ft 549 kts 29°
2026-04-27 16:11 20.22638 -13.28156 40886 ft 548 kts 29°
2026-04-27 16:12 20.31847 -13.20934 40883 ft 547 kts 29°
2026-04-27 16:13 20.41058 -13.13702 40891 ft 549 kts 29°
2026-04-27 16:13 20.50488 -13.06981 40894 ft 534 kts 14°
2026-04-27 16:14 20.57445 -13.04715 40888 ft 520 kts
2026-04-27 16:14 20.64458 -13.02844 40947 ft 519 kts
2026-04-27 16:15 20.78473 -12.99143 40901 ft 518 kts
2026-04-27 16:16 20.92458 -12.95439 40905 ft 520 kts
2026-04-27 16:17 21.06524 -12.91704 40909 ft 521 kts
2026-04-27 16:18 21.20593 -12.87962 40905 ft 520 kts
2026-04-27 16:19 21.27617 -12.86091 40903 ft 519 kts
2026-04-27 16:20 21.41613 -12.82356 40906 ft 520 kts
2026-04-27 16:21 21.52141 -12.79544 40904 ft 520 kts
2026-04-27 16:22 21.66228 -12.75774 40892 ft 524 kts
2026-04-27 16:22 21.76764 -12.72946 40900 ft 521 kts
2026-04-27 16:23 21.87319 -12.70112 40901 ft 521 kts
2026-04-27 16:24 21.94359 -12.68219 40902 ft 522 kts
2026-04-27 16:25 22.08459 -12.64420 40908 ft 521 kts
2026-04-27 16:26 22.22480 -12.60637 40909 ft 521 kts
2026-04-27 16:27 22.36582 -12.56822 40922 ft 522 kts
2026-04-27 16:28 22.54165 -12.52056 40922 ft 521 kts
2026-04-27 16:29 22.71737 -12.47279 40929 ft 523 kts
2026-04-27 16:30 22.85732 -12.42568 40932 ft 528 kts 11°
2026-04-27 16:31 23.03222 -12.36189 40933 ft 530 kts 11°
2026-04-27 16:32 23.13651 -12.32378 40924 ft 529 kts 11°
2026-04-27 16:33 23.24128 -12.28542 40932 ft 530 kts 11°
2026-04-27 16:33 23.31128 -12.25978 40933 ft 531 kts 11°
2026-04-27 16:34 23.38124 -12.23409 40931 ft 529 kts 11°
2026-04-27 16:34 23.45097 -12.20849 40927 ft 528 kts 11°
2026-04-27 16:35 23.52074 -12.18284 40924 ft 530 kts 11°
2026-04-27 16:36 23.62568 -12.14419 40934 ft 531 kts 12°
2026-04-27 16:36 23.69536 -12.11847 40932 ft 528 kts 11°
2026-04-27 16:37 23.76446 -12.09298 40932 ft 528 kts 12°
2026-04-27 16:37 23.83408 -12.06724 40930 ft 528 kts 12°
2026-04-27 16:38 23.90380 -12.04145 40924 ft 529 kts 12°
2026-04-27 16:38 23.97370 -12.01556 40925 ft 531 kts 12°
2026-04-27 16:39 24.04375 -11.98957 40924 ft 530 kts 12°
2026-04-27 16:39 24.11365 -11.96363 40922 ft 529 kts 12°
2026-04-27 16:40 24.18293 -11.93786 40921 ft 529 kts 12°
2026-04-27 16:40 24.25256 -11.91196 40922 ft 528 kts 12°
2026-04-27 16:41 24.32219 -11.88601 40920 ft 529 kts 12°
2026-04-27 16:41 24.39197 -11.85999 40926 ft 530 kts 12°
2026-04-27 16:42 24.46198 -11.83384 40931 ft 532 kts 12°
2026-04-27 16:42 24.53214 -11.80760 40932 ft 532 kts 12°
2026-04-27 16:43 24.60216 -11.78138 40928 ft 531 kts 12°
2026-04-27 16:43 24.67197 -11.75523 40924 ft 530 kts 12°
2026-04-27 16:44 24.74176 -11.72904 40922 ft 529 kts 12°
2026-04-27 16:44 24.81139 -11.70289 40912 ft 528 kts 12°
2026-04-27 16:45 24.88092 -11.67674 40943 ft 529 kts 12°
2026-04-27 16:45 24.95065 -11.65047 40928 ft 528 kts 12°
2026-04-27 16:46 25.01972 -11.62443 40932 ft 527 kts 12°
2026-04-27 16:46 25.08927 -11.59819 40931 ft 529 kts 12°
2026-04-27 16:47 25.15900 -11.57183 40933 ft 530 kts 12°
2026-04-27 16:47 25.22882 -11.54495 40935 ft 532 kts 15°
2026-04-27 16:48 25.29799 -11.51644 40921 ft 529 kts 13°
2026-04-27 16:48 25.36699 -11.48798 40918 ft 529 kts 14°
2026-04-27 16:49 25.47004 -11.44534 40923 ft 529 kts 14°
2026-04-27 16:49 25.53905 -11.41666 40934 ft 530 kts 14°
2026-04-27 16:50 25.60804 -11.38805 40924 ft 528 kts 14°
2026-04-27 16:50 25.67682 -11.35946 40922 ft 527 kts 14°
2026-04-27 16:51 25.73439 -11.33552 40921 ft 528 kts 14°
2026-04-27 16:51 25.80289 -11.30700 40931 ft 531 kts 14°
2026-04-27 16:52 25.87220 -11.27809 40930 ft 531 kts 14°
2026-04-27 16:52 25.94125 -11.24925 40929 ft 530 kts 14°
2026-04-27 16:53 26.01021 -11.22043 40924 ft 529 kts 14°
2026-04-27 16:53 26.07912 -11.19158 40925 ft 529 kts 14°
2026-04-27 16:54 26.14819 -11.16264 40927 ft 530 kts 14°
2026-04-27 16:54 26.21720 -11.13368 40923 ft 529 kts 14°
2026-04-27 16:55 26.28615 -11.10471 40925 ft 529 kts 14°
2026-04-27 16:55 26.35507 -11.07571 40921 ft 529 kts 14°
2026-04-27 16:56 26.42401 -11.04667 40924 ft 529 kts 14°
2026-04-27 16:56 26.49247 -11.01780 40921 ft 529 kts 14°
2026-04-27 16:57 26.56148 -10.98865 40901 ft 529 kts 14°
2026-04-27 16:57 26.63027 -10.95957 40896 ft 528 kts 14°
2026-04-27 16:58 26.69900 -10.93047 40899 ft 530 kts 14°
2026-04-27 16:58 26.76833 -10.90109 40909 ft 533 kts 14°
2026-04-27 16:59 26.83772 -10.87160 40907 ft 532 kts 14°
2026-04-27 16:59 26.90676 -10.84227 40899 ft 530 kts 14°
2026-04-27 17:00 27.00987 -10.79838 40899 ft 531 kts 14°
2026-04-27 17:01 27.07910 -10.76885 40905 ft 532 kts 14°
2026-04-27 17:01 27.14843 -10.73924 40902 ft 532 kts 15°
2026-04-27 17:02 27.21757 -10.70967 40904 ft 531 kts 15°
2026-04-27 17:02 27.28668 -10.68009 40901 ft 531 kts 15°
2026-04-27 17:03 27.35537 -10.65063 40904 ft 532 kts 15°
2026-04-27 17:03 27.42454 -10.62095 40907 ft 533 kts 15°
2026-04-27 17:04 27.49401 -10.59108 40914 ft 534 kts 15°
2026-04-27 17:04 27.56342 -10.56120 40909 ft 535 kts 15°
2026-04-27 17:05 27.63313 -10.53115 40907 ft 536 kts 15°
2026-04-27 17:05 27.70284 -10.50131 40899 ft 535 kts 14°
2026-04-27 17:06 27.77269 -10.47275 40895 ft 534 kts 14°
2026-04-27 17:06 27.84227 -10.44346 40897 ft 533 kts 14°
2026-04-27 17:07 27.91190 -10.41456 40903 ft 533 kts 14°
2026-04-27 17:07 27.98163 -10.38534 40941 ft 534 kts 15°
2026-04-27 17:08 28.05091 -10.35638 40916 ft 534 kts 15°
2026-04-27 17:08 28.12067 -10.32713 40919 ft 534 kts 15°
2026-04-27 17:09 28.19026 -10.29793 40921 ft 533 kts 15°
2026-04-27 17:09 28.25983 -10.26870 40922 ft 533 kts 15°
2026-04-27 17:10 28.32958 -10.23934 40925 ft 534 kts 15°
2026-04-27 17:10 28.39927 -10.20997 40930 ft 533 kts 15°
2026-04-27 17:11 28.46899 -10.18056 40930 ft 536 kts 15°
2026-04-27 17:11 28.57379 -10.13624 40943 ft 538 kts 15°
2026-04-27 17:12 28.67884 -10.09173 40932 ft 535 kts 15°
2026-04-27 17:13 28.74856 -10.06215 40929 ft 535 kts 15°
2026-04-27 17:13 28.81831 -10.03250 40936 ft 535 kts 15°
2026-04-27 17:14 28.88823 -10.00275 40964 ft 536 kts 16°
2026-04-27 17:14 28.95743 -9.97323 40939 ft 533 kts 16°
2026-04-27 17:15 29.02690 -9.94359 40937 ft 533 kts 16°
2026-04-27 17:15 29.09638 -9.91389 40936 ft 533 kts 16°
2026-04-27 17:16 29.16590 -9.88413 40938 ft 533 kts 16°
2026-04-27 17:16 29.23532 -9.85436 40940 ft 531 kts 17°
2026-04-27 17:17 29.30441 -9.82471 40926 ft 531 kts 17°
2026-04-27 17:17 29.37400 -9.79479 40937 ft 535 kts 17°
2026-04-27 17:18 29.47855 -9.74976 40960 ft 535 kts 17°
2026-04-27 17:18 29.54784 -9.71983 40930 ft 529 kts 17°
2026-04-27 17:19 29.61686 -9.69003 40928 ft 530 kts 17°
2026-04-27 17:19 29.68552 -9.66022 40925 ft 531 kts 17°
2026-04-27 17:20 29.75464 -9.63016 40923 ft 532 kts 17°
2026-04-27 17:20 29.82374 -9.60007 40929 ft 528 kts 18°
2026-04-27 17:21 29.89252 -9.57007 40919 ft 527 kts 18°
2026-04-27 17:21 29.96120 -9.54013 40917 ft 527 kts 18°
2026-04-27 17:22 30.02996 -9.51047 40911 ft 527 kts 18°
2026-04-27 17:22 30.09806 -9.48087 40910 ft 525 kts 18°
2026-04-27 17:23 30.16642 -9.45121 40904 ft 525 kts 18°
2026-04-27 17:23 30.23523 -9.42127 40884 ft 529 kts 18°
2026-04-27 17:24 30.30414 -9.39123 40889 ft 529 kts 18°
2026-04-27 17:24 30.37172 -9.35766 40906 ft 530 kts 21°
2026-04-27 17:25 30.43914 -9.32315 40693 ft 529 kts 22°
2026-04-27 17:25 30.47272 -9.30574 40546 ft 529 kts 22°
2026-04-27 17:25 30.50637 -9.28826 40415 ft 528 kts 22°
2026-04-27 17:26 30.53995 -9.27092 40292 ft 528 kts 22°
2026-04-27 17:26 30.57349 -9.25362 40158 ft 528 kts 22°
2026-04-27 17:26 30.60705 -9.23622 40052 ft 527 kts 22°
2026-04-27 17:26 30.64051 -9.21885 39918 ft 527 kts 22°
2026-04-27 17:27 30.70712 -9.18441 39902 ft 522 kts 20°
2026-04-27 17:27 30.77070 -9.15318 39908 ft 524 kts 22°
2026-04-27 17:28 30.83775 -9.11971 39913 ft 524 kts 21°
2026-04-27 17:29 30.93876 -9.06976 39926 ft 526 kts 22°
2026-04-27 17:29 31.00607 -9.03644 39923 ft 524 kts 21°
2026-04-27 17:30 31.07315 -9.00316 39923 ft 524 kts 21°
2026-04-27 17:30 31.17393 -8.95316 39926 ft 525 kts 22°
2026-04-27 17:31 31.24110 -8.91974 39928 ft 523 kts 22°
2026-04-27 17:31 31.30793 -8.88646 39927 ft 522 kts 22°
2026-04-27 17:32 31.40735 -8.83683 39839 ft 510 kts 22°
2026-04-27 17:32 31.43975 -8.82064 39400 ft 504 kts 22°
2026-04-27 17:33 31.47193 -8.80455 38805 ft 502 kts 22°
2026-04-27 17:33 31.50409 -8.78847 38114 ft 500 kts 23°
2026-04-27 17:33 31.53565 -8.77201 37520 ft 495 kts 27°
2026-04-27 17:33 31.56649 -8.75428 36896 ft 492 kts 26°
2026-04-27 17:34 31.59726 -8.73716 36271 ft 489 kts 26°
2026-04-27 17:34 31.62792 -8.72002 35665 ft 485 kts 27°
2026-04-27 17:34 31.65813 -8.70281 35051 ft 482 kts 28°
2026-04-27 17:34 31.68819 -8.68565 34444 ft 478 kts 28°
2026-04-27 17:35 31.71807 -8.66876 33845 ft 475 kts 28°
2026-04-27 17:35 31.73773 -8.65767 33439 ft 472 kts 28°
2026-04-27 17:35 31.76721 -8.64097 32817 ft 467 kts 28°
2026-04-27 17:35 31.79629 -8.62441 32261 ft 462 kts 28°
2026-04-27 17:36 31.82505 -8.60805 31699 ft 457 kts 28°
2026-04-27 17:36 31.85361 -8.59183 31142 ft 453 kts 28°
2026-04-27 17:36 31.88148 -8.57443 30133 ft 457 kts 33°
2026-04-27 17:36 31.90846 -8.55399 28884 ft 464 kts 36°
2026-04-27 17:37 31.93516 -8.53275 28171 ft 461 kts 34°
2026-04-27 17:37 31.96240 -8.51329 27626 ft 454 kts 32°
2026-04-27 17:37 31.98967 -8.49488 27075 ft 448 kts 32°
2026-04-27 17:37 32.01614 -8.47606 26545 ft 441 kts 34°
2026-04-27 17:38 32.04197 -8.45694 26016 ft 436 kts 33°
2026-04-27 17:38 32.06761 -8.43835 25503 ft 431 kts 33°
2026-04-27 17:38 32.09318 -8.42024 24996 ft 426 kts 33°
2026-04-27 17:38 32.11845 -8.40220 24502 ft 422 kts 33°
2026-04-27 17:39 32.14338 -8.38414 23998 ft 418 kts 33°
2026-04-27 17:39 32.16809 -8.36627 23518 ft 415 kts 33°
2026-04-27 17:39 32.19264 -8.34862 22979 ft 410 kts 33°
2026-04-27 17:39 32.21683 -8.33123 22495 ft 405 kts 33°
2026-04-27 17:40 32.24071 -8.31399 22024 ft 399 kts 33°
2026-04-27 17:40 32.26423 -8.29699 21562 ft 394 kts 33°
2026-04-27 17:40 32.28721 -8.28038 21102 ft 390 kts 33°
2026-04-27 17:40 32.31027 -8.26373 20658 ft 386 kts 33°
2026-04-27 17:41 32.33302 -8.24727 20222 ft 381 kts 33°
2026-04-27 17:41 32.35554 -8.23097 19749 ft 378 kts 33°
2026-04-27 17:41 32.37787 -8.21479 19335 ft 374 kts 33°
2026-04-27 17:41 32.40000 -8.19878 18900 ft 371 kts 33°
2026-04-27 17:42 32.42194 -8.18287 18470 ft 368 kts 33°
2026-04-27 17:42 32.44368 -8.16709 18024 ft 365 kts 33°
2026-04-27 17:42 32.46519 -8.15149 17584 ft 361 kts 33°
2026-04-27 17:42 32.48644 -8.13607 17161 ft 356 kts 33°
2026-04-27 17:43 32.50744 -8.12080 16763 ft 352 kts 33°
2026-04-27 17:43 32.52819 -8.10571 16352 ft 347 kts 34°
2026-04-27 17:43 32.54866 -8.09083 16049 ft 341 kts 34°
2026-04-27 17:43 32.56865 -8.07629 15720 ft 335 kts 33°
2026-04-27 17:44 32.58840 -8.06190 15353 ft 331 kts 34°
2026-04-27 17:44 32.60795 -8.04765 14967 ft 328 kts 34°
2026-04-27 17:44 32.62728 -8.03357 14586 ft 325 kts 34°
2026-04-27 17:44 32.64640 -8.01960 14220 ft 321 kts 33°
2026-04-27 17:45 32.66535 -8.00578 13850 ft 318 kts 33°
2026-04-27 17:45 32.68391 -7.99224 13478 ft 316 kts 33°
2026-04-27 17:45 32.70250 -7.97867 13100 ft 312 kts 33°
2026-04-27 17:45 32.72086 -7.96525 12730 ft 308 kts 33°
2026-04-27 17:46 32.73900 -7.95199 12394 ft 304 kts 32°
2026-04-27 17:46 32.75689 -7.93889 12044 ft 300 kts 32°
2026-04-27 17:46 32.77459 -7.92594 11679 ft 297 kts 32°
2026-04-27 17:46 32.79213 -7.91311 11360 ft 294 kts 32°
2026-04-27 17:47 32.80943 -7.90044 11027 ft 290 kts 32°
2026-04-27 17:47 32.82072 -7.89216 10915 ft 284 kts 32°
2026-04-27 17:47 32.84318 -7.87570 10710 ft 284 kts 32°
2026-04-27 17:47 32.86002 -7.86334 10241 ft 287 kts 32°
2026-04-27 17:48 32.87691 -7.85095 9909 ft 283 kts 31°
2026-04-27 17:48 32.89358 -7.83871 9600 ft 279 kts 31°
2026-04-27 17:48 32.91006 -7.82661 9191 ft 277 kts 31°
2026-04-27 17:48 32.92637 -7.81462 8863 ft 273 kts 31°
2026-04-27 17:49 32.94221 -7.80299 8506 ft 270 kts 31°
2026-04-27 17:49 32.95809 -7.79130 8159 ft 266 kts 31°
2026-04-27 17:49 32.97378 -7.77976 7798 ft 264 kts 31°
2026-04-27 17:49 32.98934 -7.76830 7439 ft 261 kts 31°
2026-04-27 17:50 33.00468 -7.75702 7121 ft 257 kts 31°
2026-04-27 17:50 33.03491 -7.73458 6416 ft 252 kts 35°
2026-04-27 17:50 33.04623 -7.71908 6033 ft 250 kts 60°
2026-04-27 17:51 33.05328 -7.70009 5598 ft 251 kts 67°
2026-04-27 17:51 33.05933 -7.68068 5243 ft 249 kts 68°
2026-04-27 17:51 33.06530 -7.66158 4923 ft 244 kts 66°
2026-04-27 17:51 33.07110 -7.64373 4949 ft 219 kts 66°
2026-04-27 17:52 33.07665 -7.62676 4465 ft 222 kts 67°
2026-04-27 17:52 33.08218 -7.60969 4057 ft 220 kts 66°
2026-04-27 17:52 33.08767 -7.59280 3677 ft 217 kts 66°
2026-04-27 17:52 33.09291 -7.57656 3610 ft 202 kts 66°
2026-04-27 17:53 33.09789 -7.56106 3604 ft 196 kts 65°
2026-04-27 17:53 33.10269 -7.54629 3608 ft 191 kts 65°
2026-04-27 17:53 33.10735 -7.53190 3610 ft 182 kts 66°
2026-04-27 17:53 33.11376 -7.51927 3565 ft 177 kts 41°
2026-04-27 17:54 33.12457 -7.51260 3553 ft 179 kts
2026-04-27 17:54 33.13676 -7.51442 3618 ft 176 kts 352°
2026-04-27 17:54 33.14870 -7.51760 3621 ft 178 kts 348°
2026-04-27 17:54 33.16068 -7.52147 3613 ft 178 kts 348°
2026-04-27 17:55 33.17283 -7.52558 3620 ft 183 kts 347°
2026-04-27 17:55 33.18496 -7.52972 3608 ft 180 kts 347°
2026-04-27 17:55 33.19695 -7.53382 3609 ft 179 kts 347°
2026-04-27 17:55 33.20887 -7.53790 3462 ft 174 kts 347°
2026-04-27 17:56 33.22008 -7.54172 3249 ft 160 kts 346°
2026-04-27 17:56 33.23044 -7.54531 3038 ft 152 kts 347°
2026-04-27 17:56 33.24042 -7.54872 2854 ft 143 kts 346°
2026-04-27 17:56 33.24973 -7.55185 2675 ft 136 kts 345°
2026-04-27 17:57 33.25921 -7.55508 2507 ft 145 kts 345°
2026-04-27 17:57 33.26864 -7.55831 2315 ft 139 kts 345°
2026-04-27 17:57 33.27802 -7.56152 2140 ft 142 kts 343°
2026-04-27 17:57 33.28726 -7.56469 1943 ft 135 kts 343°
2026-04-27 17:58 33.29653 -7.56782 1777 ft 142 kts 343°
2026-04-27 17:58 33.30587 -7.57090 1665 ft 139 kts 343°
2026-04-27 17:58 33.31534 -7.57421 1582 ft 144 kts 342°
2026-04-27 17:58 33.32477 -7.57737 1427 ft 138 kts 342°
2026-04-27 17:59 33.33388 -7.58041 1217 ft 138 kts 343°
2026-04-27 17:59 33.34305 -7.58370 988 ft 138 kts 342°
2026-04-27 17:59 33.35215 -7.58683 686 ft 134 kts 342°
2026-04-27 17:59 33.36033 -7.58970 657 ft 109 kts 344°
2026-04-27 18:00 33.36605 -7.59162 659 ft 63 kts 344°
2026-04-27 18:00 33.36968 -7.59289 658 ft 52 kts 343°
2026-04-27 18:00 33.37263 -7.59388 659 ft 39 kts 343°
2026-04-27 18:00 33.37514 -7.59476 659 ft 37 kts 344°
2026-04-27 18:01 33.37696 -7.59518 657 ft 9 kts 26°
2026-04-27 18:01 33.37724 -7.59467 656 ft 10 kts 68°
2026-04-27 18:01 33.37745 -7.59386 657 ft 11 kts 73°
2026-04-27 18:01 33.37767 -7.59293 657 ft 13 kts 74°
2026-04-27 18:02 33.37796 -7.59172 650 ft 17 kts 74°
2026-04-27 18:02 33.37830 -7.59034 655 ft 16 kts 73°
2026-04-27 18:02 33.37857 -7.58921 657 ft 12 kts 73°
2026-04-27 18:02 33.37872 -7.58860 658 ft 2 kts 73°
2026-04-27 18:03 33.37872 -7.58858 658 ft 0 kts 81°
2026-04-27 18:03 33.37871 -7.58846 658 ft 4 kts 100°
2026-04-27 18:03 33.37839 -7.58807 658 ft 9 kts 152°
2026-04-27 18:03 33.37755 -7.58772 658 ft 16 kts 164°
2026-04-27 18:04 33.37617 -7.58726 658 ft 24 kts 164°
2026-04-27 18:04 33.37428 -7.58661 658 ft 32 kts 164°
2026-04-27 18:04 33.37236 -7.58596 658 ft 28 kts 164°
2026-04-27 18:04 33.37048 -7.58532 658 ft 20 kts 163°
2026-04-27 18:05 33.36984 -7.58510 658 ft 9 kts 163°
2026-04-27 18:05 33.36924 -7.58485 658 ft 8 kts 149°
2026-04-27 18:05 33.36906 -7.58446 658 ft 5 kts 98°
2026-04-27 18:05 33.36911 -7.58385 658 ft 10 kts 78°
2026-04-27 18:06 33.36937 -7.58288 658 ft 12 kts 56°
2026-04-27 18:06 33.36997 -7.58242 658 ft 9 kts
2026-04-27 18:06 33.37068 -7.58260 658 ft 13 kts 345°
2026-04-27 18:06 33.37172 -7.58293 658 ft 18 kts 344°
2026-04-27 18:07 33.37308 -7.58339 658 ft 23 kts 344°
2026-04-27 18:07 33.37422 -7.58377 658 ft 9 kts 344°
2026-04-27 18:07 33.37478 -7.58395 658 ft 6 kts 349°
2026-04-27 18:07 33.37498 -7.58387 658 ft 2 kts 41°
2026-04-27 18:08 33.37516 -7.58359 658 ft 2 kts 66°
2026-04-27 18:08 33.37524 -7.58337 658 ft 2 kts 65°
2026-04-27 18:08 33.37528 -7.58328 658 ft 1 kts 65°
2026-04-27 18:08 33.37530 -7.58322 658 ft 0 kts 64°